Погода в Жезказгане

Погода в Жезказгане : погода сейчас, прогноз погоды и архив. Всё, что Вы хотите узнать о погоде в Жезказгане!

Хотите узнать прогноз погоды в Жезказгане? Тогда Вам сюда: Погода в Жезказгане

Поиск расширенной информации на нашем сайте:

Другие новости

Новости СМИ2

Главная страница сайта

Новости сайта

02.10.2013

Напоминаем, что на нашем новом сайте вы можете получить высокодетализированные прогнозы погоды по пунктам России, СНГ и мира (включающие важные для авиации метеовеличины, такие как направление и скорость ветра, видимость, явления погоды, количество и форма облачности, нижняя и верхняя граница облачности), а также ознакомиться с разнообразными материалами по авиационной метеорологии и подборкой полезных ссылок на эту тему.

Сайт Метеоцентр.Азия посвящён разработке технологий оптимизации авиаметеорологического обслуживания, включая проектирование и перспективное создание нескольких автоматизированных авиаметеорологических систем:
- система выпуска высокодетальных прогностических карт явлений погоды для нижнего воздушного пространства по России и ближнему зарубежью;
- система верификации прогнозов TAF (выпускаемых синоптиками официальных АМСГ РФ и ближнего зарубежья) и AUTOTAF (выпускаемых сайтом Метеоцентр.Азия) - выявление ошибок, онлайн-сопоставление с фактической погодой METAR, автоматическое внесение коррективов в прогнозы при резком отклонении фактической погоды от прогноза, подсчёт оправдываемости прогнозов по элементам и в целом;
- система обработки, анализа и отображения авиаметеорологической информации для применения провайдерами метеорологической информации.

Рекомендуем: Джинтропин цена подробнее.

Погода в Жезказгане - сегодня

Время (UTC), дата Ветер
(°,м/с) 
Видим.   Явления Облачность Т
(°С)
Тd
(°С)
f(%) Тe
(°С)
Pmin
(гПа)
dP
(гПа)
Po
(мм)
O2
(г/м3)
Тmin Tmax R s Состояние
почвы
00 24.05.17 210 (ЮЗ) 20000 м    3/0 средняя 
[Ac lent]
+10.3 +5.3 71 +10  1013.2  0.2  729  282           
03 24.05.17 270 (З) 20000 м    ясно 
+19.1 +8.9 52 +20  1013.3  1.3  730  273           
06 24.05.17 280 (З) 20000 м    8/4 1000 м верхняя 
[Cu hum|Ci fib]
+25.2 +8.3 34 +25  1012.1  -0.4  730  268  +10.2         
09 24.05.17 310 (СЗ) 20000 м    8/8 600 м кучево-дожд. 
[Cb cap]
+25.4 +8.3 34 +25  1011.5  -0.5  729  267           
12 24.05.17 270 (З) 20000 м    8/8 600 м кучево-дожд. 
[Cb cap]
+24.9 +8.3 35 +25  1011.8  0.2  730  268           
15 24.05.17 320 (СЗ) 20000 м    5/5 600 м кучево-дожд. 
[Cb cap]
+19.3 +5.7 41 +19  1013.7  1.1  730  274    +26.2       
18 24.05.17 360 (С) 20000 м    3/3 600 м кучево-дожд. 
[Cb cap]
+15.5 +2.8 42 +15  1015.8  1.5  732  278    +26.2       
21 24.05.17 010 (С) 20000 м    3/3 600 м 
[Sc]
+12.1 +2 50 +12  1016.9  0.6  732  282           
00 25.05.17 040 (СВ) 20000 м    8/8 600 м 
[Sc]
+11.1 +1.8 53 +10  1018  0.8  733  283           
03 25.05.17 070 (В) 20000 м    3/3 600 м 
[Sc]
+13.6 +1.1 42 +13  1018.7  1.1  733  281           
06 25.05.17 060 (СВ) 20000 м    1/0 верхняя 
[Ci fib]
+18.6 +0.5 30 +19  1018.2  0.2  734  277  +10.3         
09 25.05.17 070 (В) 20000 м    3/0 верхняя 
[Ci fib]
+21.8 +0.8 25 +22  1016.5  -1.2  733  273           
12 25.05.17 030 (СВ) 20000 м    3/0 верхняя 
[Ci fib]
+22.9 +0.4 23 +23  1016.2  -0.1  733  272           
15 25.05.17 060 (СВ) 20000 м    3/0 верхняя 
[Ci fib]
+20.8 +1.7 28 +21  1016.9  0.4  733  274    +23.6       
18 25.05.17 060 (СВ) 20000 м    ясно 
+16 +2.7 41 +16  1018.7  734  279    +23.6       
21 25.05.17 090 (В) 20000 м    ясно 
+14.2 +3.8 50 +14  1019.5  0.6  734  281           
00 26.05.17 080 (В) 20000 м    ясно 
+11.3 +1.4 50 +11  1020.2  0.2  734  284           
03 26.05.17 100 (В) 20000 м    ясно 
+17.2 -0.4 30 +17  1019.8  0.4  735  278           
06 26.05.17 090 (В) 20000 м    4/0 верхняя 
[Ci fib]
+21.1 -1.5 22 +21  1018.4  -0.8  734  275  +11.2         
09 26.05.17 100 (В) 20000 м    5/0 верхняя 
[Ci fib]
+25 +0.6 20 +25  1016.7  -1.1  733  270           
12 26.05.17 100 (В) 20000 м    9/0 верхняя 
[Ci fib]
+26.3 +1.1 19 +26  1014.7  -1.8  732  269           
15 26.05.17 070 (В) 20000 м    9/0 верхняя 
[Ci fib]
+24.2 +0.1 20 +24  1014  -0.9  731  271    +27.5       
18 26.05.17 070 (В) 20000 м    9/0 средняя, верхняя 
[Ac lent|Ci fib]
+21.1 +0.6 26 +21  1013.1  -1.3  730  273    +27.5       
21 26.05.17 110 (В) 20000 м    6/0 верхняя 
[Ci fib]
+17.5 +1.3 34 +18  1011.5  -2  729  276           
00 27.05.17 тихо ()   20000 м    8/0 верхняя 
[Ci fib]
+12.3 +1.4 47 +12  1012.6  0.3  729  281           
Время (UTC), дата Ветер
(°,м/с) 
Видим.   Явления Облачность Т
(°С)
Тd
(°С)
f(%) Тe
(°С)
Pmin
(гПа)
dP
(гПа)
Po
(мм)
O2
(г/м3)
Тmin Tmax R s Состояние
почвы

Для получения пояснительной информации подведите курсор к названию столбца.

ПОГОДА в Жезказгане - архив

Всё, что Вы хотите узнать о погоде в Жезказгане - удобно и подробно!

Выберите нужную дату (начиная с 1 января 2015* года) и нажмите кнопку "Найти".
Будут отображены архивные сводки погоды по пункту Жезказган, начиная с указанной даты.


Отображать данные в формате CSV (для использования в таблицах Excel)


Внимание! Наш архив погоды предназначен исключительно для личного некоммерческого использования в познавательных целях. Если Вам необходимы официальные справки о состоянии погоды (для производственных, юридических, коммерческих и т.п. целей), обращайтесь в органы Росгидромета.

*Примечание: данная дата относится к архиву по метеостанциям СССР (Россия, СНГ, Балтия).
Архив по метеостанциям Зарубежной Европы и Азии (кроме Китая) хранится 10 дней, по другим регионам земного шара (Китай, Африка, Америка, Австралия, Океания) - 1 день.

Жезказган - район местоположения метеостанции


Название, широта, долгота, высота метеостанции:
Жезказган 47.8°ш. 67.7°д. 346 м над ур. моря [Казахстан]

Дополнительная информация

В oтличие oт бoльшинства пoгoдных сайтoв мы публикуем пoдрoбную метеoинфoрмацию в детальнoм прoфессиoнальнoм фoрмате.

Характеристики температуры и влажнoсти вoздуха измеряются на высoте 2 м в тени вдали oт зданий и деревьев.
Скoрoсть ветра измеряется на высoте 10 м (на урoвне рoста челoвека скoрoсть ветра ниже в 1.5-2 раза). Если метеoстанция нахoдится в гoрoде или в лесу, тo скoрoсть ветра занижена на 2-4 м/с пo сравнению с oткрытым местoм. Скoрoсть ветра над акватoриями крупных рек и oзёр, а также на вершинах хoлмoв на 2-5 м/с выше, чем в oбычных услoвиях.
Атмoсфернoе давление в разных тoчках местнoсти мoжет значительнo oтличаться oт давления на метеoстанции, в зависимoсти oт услoвий рельефа (при пoдъёме на 10 м давление пoнижается примернo на 1 мм рт.ст.).